Location: Borovka
(49.7741°N, 14.5280°E)
Time: 17:06:01
(UTC+00:00)

Meteor 2-3 Rocket - Pass Details

Date: 17 November 2025
Orbit: 841 x 884 km, 81.2° (Epoch: 08 December)

Event Time Altitude Azimuth Distance (km) Brightness Sun altitude
Rises 16:54:45 0° 352° (N) 3,471 6.9 -15.7°
Reaches altitude 10° 16:57:24 10° 1° (N) 2,522 6.1 -16.2°
Maximum altitude 17:02:42 38° 68° (ENE) 1,298 4.2 -17.0°
Enters shadow 17:07:29 12° 134° (SE) 2,334 5.7 -17.8°
